Regional Weather Roundup
Issued by NWS

Home | Current Version | Previous Version | Graphics & Text | Print | Product List | Glossary On
Versions: 1 2 3 4 5 6 7 8 9 10 11 12 13 14 15 16 17 18 19 20 21 22 23 24 25 26 27 28 29 30 31 32 33 34 35 36 37 38 39 40 41 42 43 44 45 46 47 48 49 50
662
ASUS44 KMEG 240710
RWRTN
TENNESSEE HOURLY STATE WEATHER ROUNDUP
NATIONAL WEATHER SERVICE MEMPHIS TN
100 AM CST FRI NOV 24 2017

TNZ002-004-019-021-049-052-054-088>092-240800-
WEST TENNESSEE

CITY           SKY/WX    TMP DP  RH WIND       PRES   REMARKS
MEMPHIS INTL   CLEAR     39  29  67 CALM      30.02F
NWS MEMPHIS      N/A     35 N/A N/A MISG        N/A
JACKSON        CLEAR     29  27  92 CALM      30.03F
DYERSBURG      CLEAR     37  28  70 CALM      30.03S
SOMERVILLE     CLEAR     32  28  86 CALM      30.01F
COVINGTON      PTCLDY    30  27  86 CALM      30.02F
UNION CITY     CLEAR     34  25  69 CALM      30.01F
BOLIVAR        CLEAR     30  27  86 CALM      30.02F
PARIS          CLEAR     36  25  64 S6        30.00F WCI  31
HUNTINGDON     CLEAR     32  27  80 CALM      30.01F
LEXINGTON      CLEAR     30  27  86 CALM      30.03F
SELMER         CLEAR     34  23  64 CALM      30.03F
SAVANNAH       CLEAR     30  27  86 CALM      30.04F
$$

TNZ008-025-027-028-033-062-065-066-240800-
NORTH MIDDLE TENNESSEE

CITY           SKY/WX    TMP DP  RH WIND       PRES   REMARKS
NASHVILLE      CLEAR     32  27  81 S3        30.05S
PORTLAND       CLEAR     30  27  86 S5        30.02F WCI  25
CLARKSVILLE    CLOUDY    30  24  78 CALM      30.03F
SMYRNA         CLEAR     27  24  89 CALM      30.06S
COOKEVILLE     CLEAR     27  25  93 CALM      30.03S
GALLATIN       CLEAR     32  27  80 CALM      30.06F
CROSSVILLE     CLEAR     30  26  85 CALM      30.02F
$$

TNZ061-075-076-078-094-096-097-240800-
SOUTH MIDDLE TENNESSEE

CITY           SKY/WX    TMP DP  RH WIND       PRES   REMARKS
FAYETTEVILLE   MOCLDY    39  23  52 N5        30.02S
TULLAHOMA      CLOUDY    30  25  80 CALM      30.03S
WINCHESTER     CLEAR     28  27  93 CALM      30.04S
MCMINNVILLE    CLEAR     28  27  93 CALM      30.04S
COLUMBIA       CLEAR     30  27  86 CALM      30.04S
SHELBYVILLE    CLEAR     28  27  93 CALM      30.04S
$$

TNZ017-018-042-046-047-240800-
NORTHEAST TENNESSEE

CITY           SKY/WX    TMP DP  RH WIND       PRES   REMARKS
TRI CITIES     CLEAR     30  29  96 CALM      30.04S
ELIZABETHTON   CLEAR     36  32  87 CALM      30.04S
$$

TNZ012-013-036-069-073-074-240800-
CENTRAL EAST TENNESSEE

CITY           SKY/WX    TMP DP  RH WIND       PRES   REMARKS
KNOXVILLE      CLEAR     34  33  96 CALM      30.03S
OAK RIDGE      CLEAR     32  31  96 CALM      30.06R
DOWNTOWN KNOXV FOG       32  32 100 CALM      30.05F VSB 0
GATLINBURG     MOCLDY    30  30 100 CALM      30.04S
MORRISTOWN     PTCLDY    34  30  86 CALM      30.03S
JACKSBORO      CLEAR     30  30 100 CALM      30.07S
$$

TNZ083-085-099-240800-
SOUTHEAST TENNESSEE

CITY           SKY/WX    TMP DP  RH WIND       PRES   REMARKS
CHATTANOOGA    CLEAR     36  33  89 CALM      30.04S
DAYTON         SUNNY     30  30 100 CALM      30.04S
$$

SKY/WX REPORTED AS FAIR MEANS FEW OR NO CLOUDS BELOW
12 THOUSAND FEET.





USA.gov is the U.S. government's official web portal to all federal, state and local government web resources and services.